Location: Navalespino
(40.5894°N, 4.2660°W)
Time: 16:10:46
(UTC+00:00)

DELTA 2 DEB (DPAF) - Pass Details

Date: 18 April 2024
Orbit: 597 x 601 km, 98.4° (Epoch: 23 May)

Event Time Altitude Azimuth Distance (km) Brightness Sun altitude
Rises 19:45:13 0° 17° (NNE) 2,850 7.6 -8.9°
Reaches altitude 10° 19:47:26 10° 21° (NNE) 1,943 6.7 -9.3°
Maximum altitude 19:51:35 58° 101° (E) 698 4.0 -10.0°
Drops below altitude 10° 19:55:43 10° 181° (S) 1,931 6.4 -10.8°
Sets 19:57:55 0° 185° (S) 2,830 7.2 -11.1°
